| time (UTC) | temp C | wind direction | speed KPH | gust KPH | rain 1hr cm | rain 24hr cm | rain mn cm | humidity % | barometer mb |
| 20260509235539 | 20 | 226 | 0.0 | 8.0 | 0.00 | 0.00 | 0.00 | 63 | 1027.8 |
| 20260509234703 | 20 | 177 | 0.0 | 12.9 | 0.00 | 0.00 | 0.00 | 63 | 1027.7 |
| 20260509233541 | 20 | 0.0 | 4.8 | 0.00 | 0.00 | 0.00 | 64 | 1027.8 | |
| 20260509232541 | 20 | 195 | 0.0 | 4.8 | 0.00 | 0.00 | 0.00 | 64 | 1028.0 |
| 20260509231541 | 19 | 236 | 0.0 | 12.9 | 0.00 | 0.00 | 0.00 | 64 | 1027.7 |
| 20260509230541 | 19 | 189 | 0.0 | 8.0 | 0.00 | 0.00 | 0.00 | 65 | 1027.4 |
| 20260509225539 | 19 | 0.0 | 0.0 | 0.00 | 0.00 | 0.00 | 65 | 1027.3 | |
| 20260509224624 | 18 | 0.0 | 0.0 | 0.00 | 0.00 | 0.00 | 67 | 1027.2 | |
| 20260509223539 | 17 | 151 | 0.0 | 8.0 | 0.00 | 0.00 | 0.00 | 68 | 1027.2 |
| 20260509222541 | 17 | 0.0 | 4.8 | 0.00 | 0.00 | 0.00 | 69 | 1027.2 | |
| 20260509221540 | 17 | 0.0 | 4.8 | 0.00 | 0.00 | 0.00 | 71 | 1027.0 | |
| 20260509220635 | 16 | 216 | 0.0 | 8.0 | 0.00 | 0.00 | 0.00 | 73 | 1026.8 |
| 20260509215643 | 15 | 0.0 | 0.0 | 0.00 | 0.00 | 0.00 | 75 | 1026.8 | |
| 20260509214635 | 14 | 0.0 | 0.0 | 0.00 | 0.00 | 0.00 | 80 | 1026.7 | |
| 20260509213643 | 13 | 0.0 | 0.0 | 0.00 | 0.00 | 0.00 | 85 | 1026.7 | |
| 20260509212635 | 12 | 0.0 | 0.0 | 0.00 | 0.00 | 0.00 | 86 | 1026.6 | |
| 20260509211724 | 12 | 0.0 | 0.0 | 0.00 | 0.00 | 0.00 | 87 | 1026.4 | |
| 20260509210635 | 12 | 0.0 | 0.0 | 0.00 | 0.00 | 0.00 | 87 | 1026.3 | |
| 20260509205643 | 11 | 0.0 | 0.0 | 0.00 | 0.00 | 0.00 | 87 | 1026.1 | |
| 20260509204635 | 11 | 0.0 | 0.0 | 0.00 | 0.00 | 0.00 | 87 | 1026.0 | |
| 20260509203643 | 11 | 0.0 | 0.0 | 0.00 | 0.00 | 0.00 | 87 | 1025.9 | |
| 20260509202635 | 11 | 0.0 | 0.0 | 0.00 | 0.00 | 0.00 | 86 | 1025.8 | |
| 20260509201643 | 11 | 0.0 | 0.0 | 0.00 | 0.00 | 0.00 | 86 | 1025.6 | |
| 20260509200541 | 11 | 0.0 | 0.0 | 0.00 | 0.00 | 0.00 | 86 | 1025.6 | |
| 20260509195541 | 11 | 0.0 | 0.0 | 0.00 | 0.00 | 0.00 | 86 | 1025.6 | |
| 20260509194543 | 11 | 0.0 | 0.0 | 0.00 | 0.00 | 0.00 | 85 | 1025.7 | |
| 20260509193539 | 12 | 0.0 | 0.0 | 0.00 | 0.00 | 0.00 | 85 | 1025.6 | |
| 20260509192541 | 12 | 0.0 | 0.0 | 0.00 | 0.00 | 0.00 | 85 | 1025.4 | |
| 20260509191539 | 12 | 0.0 | 0.0 | 0.00 | 0.00 | 0.00 | 84 | 1025.2 | |
| 20260509190541 | 12 | 0.0 | 0.0 | 0.00 | 0.00 | 0.00 | 84 | 1025.1 | |
| 20260509185540 | 12 | 0.0 | 0.0 | 0.00 | 0.00 | 0.00 | 84 | 1025.1 | |
| 20260509184543 | 12 | 0.0 | 0.0 | 0.00 | 0.00 | 0.00 | 84 | 1025.0 | |
| 20260509183539 | 12 | 0.0 | 0.0 | 0.00 | 0.00 | 0.00 | 84 | 1025.0 | |
| 20260509182541 | 12 | 0.0 | 0.0 | 0.00 | 0.00 | 0.00 | 84 | 1024.9 | |
| 20260509181539 | 12 | 0.0 | 0.0 | 0.00 | 0.00 | 0.00 | 84 | 1025.0 | |
| 20260509180542 | 12 | 0.0 | 0.0 | 0.00 | 0.00 | 0.00 | 84 | 1024.9 | |
| 20260509175724 | 12 | 0.0 | 0.0 | 0.00 | 0.00 | 0.00 | 84 | 1024.8 | |
| 20260509174635 | 12 | 0.0 | 0.0 | 0.00 | 0.00 | 0.00 | 83 | 1024.9 | |
| 20260509173644 | 12 | 0.0 | 0.0 | 0.00 | 0.00 | 0.00 | 83 | 1024.7 | |
| 20260509172636 | 12 | 0.0 | 0.0 | 0.00 | 0.00 | 0.00 | 82 | 1024.7 | |
| 20260509171724 | 12 | 0.0 | 0.0 | 0.00 | 0.00 | 0.00 | 82 | 1024.7 | |
| 20260509170635 | 12 | 0.0 | 0.0 | 0.00 | 0.00 | 0.00 | 82 | 1024.8 | |
| 20260509165645 | 12 | 0.0 | 0.0 | 0.00 | 0.00 | 0.00 | 81 | 1024.7 | |
| 20260509164635 | 12 | 0.0 | 0.0 | 0.00 | 0.00 | 0.00 | 80 | 1024.8 | |
| 20260509163644 | 13 | 0.0 | 0.0 | 0.00 | 0.00 | 0.00 | 80 | 1024.9 | |
| 20260509162636 | 12 | 0.0 | 0.0 | 0.00 | 0.00 | 0.00 | 82 | 1024.8 | |
| 20260509161643 | 12 | 0.0 | 0.0 | 0.00 | 0.00 | 0.00 | 84 | 1025.0 | |
| 20260509160635 | 12 | 0.0 | 0.0 | 0.00 | 0.00 | 0.00 | 85 | 1024.9 | |
| 20260509154541 | 12 | 0.0 | 0.0 | 0.00 | 0.00 | 0.00 | 85 | 1025.0 | |
| 20260509153539 | 12 | 0.0 | 0.0 | 0.00 | 0.00 | 0.00 | 85 | 1025.0 | |
| 20260509152541 | 12 | 0.0 | 0.0 | 0.00 | 0.00 | 0.00 | 86 | 1025.1 | |
| 20260509151539 | 12 | 0.0 | 0.0 | 0.00 | 0.00 | 0.00 | 85 | 1025.3 | |
| 20260509150541 | 12 | 0.0 | 0.0 | 0.00 | 0.00 | 0.00 | 85 | 1025.2 | |
| 20260509145724 | 12 | 0.0 | 0.0 | 0.00 | 0.00 | 0.00 | 85 | 1025.2 | |
| 20260509144636 | 12 | 0.0 | 0.0 | 0.00 | 0.00 | 0.00 | 85 | 1025.2 | |
| 20260509143643 | 12 | 0.0 | 0.0 | 0.00 | 0.00 | 0.00 | 85 | 1025.1 | |
| 20260509142635 | 12 | 0.0 | 0.0 | 0.00 | 0.00 | 0.00 | 84 | 1025.0 | |
| 20260509141806 | 12 | 0.0 | 0.0 | 0.00 | 0.00 | 0.00 | 84 | 1025.2 | |
| 20260509140715 | 12 | 0.0 | 0.0 | 0.00 | 0.00 | 0.00 | 83 | 1025.1 | |
| 20260509135700 | 12 | 0.0 | 0.0 | 0.00 | 0.00 | 0.00 | 83 | 1025.2 | |
| 20260509134542 | 13 | 0.0 | 0.0 | 0.00 | 0.00 | 0.00 | 82 | 1025.3 | |
| 20260509133541 | 13 | 0.0 | 0.0 | 0.00 | 0.00 | 0.00 | 80 | 1025.4 | |
| 20260509132541 | 13 | 0.0 | 0.0 | 0.00 | 0.00 | 0.00 | 80 | 1025.3 | |
| 20260509131643 | 13 | 0.0 | 0.0 | 0.00 | 0.00 | 0.00 | 80 | 1025.4 | |
| 20260509130715 | 13 | 0.0 | 0.0 | 0.00 | 0.00 | 0.00 | 81 | 1025.5 | |
| 20260509125619 | 13 | 0.0 | 0.0 | 0.00 | 0.00 | 0.00 | 81 | 1025.4 | |
| 20260509124541 | 13 | 0.0 | 0.0 | 0.00 | 0.00 | 0.00 | 79 | 1025.4 | |
| 20260509123539 | 14 | 234 | 0.0 | 4.8 | 0.00 | 0.00 | 0.00 | 80 | 1025.3 |
| 20260509122542 | 13 | 0.0 | 0.0 | 0.00 | 0.00 | 0.00 | 81 | 1025.5 | |
| 20260509121643 | 13 | 0.0 | 0.0 | 0.00 | 0.00 | 0.00 | 81 | 1025.5 | |
| 20260509120635 | 13 | 0.0 | 0.0 | 0.00 | 0.00 | 0.00 | 80 | 1025.4 | |
| 20260509115643 | 13 | 0.0 | 0.0 | 0.00 | 0.00 | 0.00 | 79 | 1025.5 | |
| 20260509114636 | 14 | 0.0 | 0.0 | 0.00 | 0.00 | 0.00 | 78 | 1025.4 | |
| 20260509113539 | 15 | 0.0 | 0.0 | 0.00 | 0.00 | 0.00 | 75 | 1025.4 | |
| 20260509112541 | 15 | 0.0 | 0.0 | 0.00 | 0.00 | 0.00 | 75 | 1025.4 | |
| 20260509111644 | 15 | 0.0 | 0.0 | 0.00 | 0.00 | 0.00 | 76 | 1025.5 | |
| 20260509110635 | 15 | 0.0 | 0.0 | 0.00 | 0.00 | 0.00 | 75 | 1025.5 | |
| 20260509105540 | 15 | 0.0 | 0.0 | 0.00 | 0.00 | 0.00 | 74 | 1025.4 | |
| 20260509104623 | 16 | 0.0 | 0.0 | 0.00 | 0.00 | 0.00 | 72 | 1025.5 | |
| 20260509103539 | 16 | 0.0 | 0.0 | 0.00 | 0.00 | 0.00 | 72 | 1025.3 | |
| 20260509102623 | 16 | 0.0 | 0.0 | 0.00 | 0.00 | 0.00 | 70 | 1025.3 | |
| 20260509101539 | 16 | 0.0 | 0.0 | 0.00 | 0.00 | 0.00 | 68 | 1025.2 | |
| 20260509100541 | 17 | 0.0 | 0.0 | 0.00 | 0.00 | 0.00 | 67 | 1025.3 | |
| 20260509095539 | 17 | 0.0 | 0.0 | 0.00 | 0.00 | 0.00 | 66 | 1025.2 | |
| 20260509094541 | 17 | 0.0 | 0.0 | 0.00 | 0.00 | 0.00 | 66 | 1025.0 | |
| 20260509093539 | 17 | 0.0 | 0.0 | 0.00 | 0.00 | 0.00 | 66 | 1024.7 | |
| 20260509092541 | 17 | 0.0 | 0.0 | 0.00 | 0.00 | 0.00 | 65 | 1024.7 | |
| 20260509091643 | 18 | 0.0 | 0.0 | 0.00 | 0.00 | 0.00 | 64 | 1024.8 | |
| 20260509090718 | 18 | 0.0 | 0.0 | 0.00 | 0.00 | 0.00 | 63 | 1024.6 | |
| 20260509085643 | 18 | 0.0 | 0.0 | 0.00 | 0.00 | 0.00 | 63 | 1024.5 | |
| 20260509084716 | 18 | 0.0 | 0.0 | 0.00 | 0.00 | 0.00 | 62 | 1024.3 | |
| 20260509083643 | 18 | 0.0 | 0.0 | 0.00 | 0.00 | 0.00 | 61 | 1024.1 | |
| 20260509082756 | 18 | 0.0 | 0.0 | 0.00 | 0.00 | 0.00 | 60 | 1024.1 | |
| 20260509081806 | 18 | 0.0 | 0.0 | 0.00 | 0.00 | 0.00 | 59 | 1023.9 | |
| 20260509080715 | 19 | 0.0 | 0.0 | 0.00 | 0.00 | 0.00 | 58 | 1023.9 | |
| 20260509074542 | 20 | 0.0 | 0.0 | 0.00 | 0.00 | 0.00 | 56 | 1023.7 | |
| 20260509073539 | 20 | 0.0 | 0.0 | 0.00 | 0.00 | 0.00 | 55 | 1023.6 | |
| 20260509072541 | 20 | 0.0 | 0.0 | 0.00 | 0.00 | 0.00 | 53 | 1023.5 | |
| 20260509071539 | 21 | 0.0 | 0.0 | 0.00 | 0.00 | 0.00 | 52 | 1023.6 | |
| 20260509070635 | 21 | 0.0 | 0.0 | 0.00 | 0.00 | 0.00 | 51 | 1023.4 | |
| 20260509065643 | 21 | 0.0 | 0.0 | 0.00 | 0.00 | 0.00 | 49 | 1023.2 | |
| 20260509064715 | 21 | 73 | 0.0 | 4.8 | 0.00 | 0.00 | 0.00 | 48 | 1023.0 |
| 20260509063645 | 22 | 0.0 | 4.8 | 0.00 | 0.00 | 0.00 | 49 | 1022.8 | |
| 20260509062635 | 22 | 80 | 0.0 | 12.9 | 0.00 | 0.00 | 0.00 | 48 | 1022.7 |
| 20260509061725 | 22 | 84 | 1.6 | 12.9 | 0.00 | 0.00 | 0.00 | 47 | 1022.6 |
| 20260509060635 | 22 | 82 | 1.6 | 16.1 | 0.00 | 0.00 | 0.00 | 47 | 1022.6 |
| 20260509055643 | 22 | 74 | 0.0 | 8.0 | 0.00 | 0.00 | 0.00 | 47 | 1022.5 |
| 20260509054635 | 22 | 70 | 3.2 | 16.1 | 0.00 | 0.00 | 0.00 | 47 | 1022.4 |
| 20260509053644 | 23 | 96 | 1.6 | 8.0 | 0.00 | 0.00 | 0.00 | 46 | 1022.4 |
| 20260509052635 | 23 | 0.0 | 0.0 | 0.00 | 0.00 | 0.00 | 46 | 1022.3 | |
| 20260509051645 | 23 | 74 | 1.6 | 8.0 | 0.00 | 0.00 | 0.00 | 46 | 1022.3 |
| 20260509050635 | 23 | 86 | 1.6 | 12.9 | 0.00 | 0.00 | 0.00 | 45 | 1022.3 |
| 20260509045643 | 23 | 78 | 1.6 | 12.9 | 0.00 | 0.00 | 0.00 | 45 | 1022.2 |
| 20260509044636 | 23 | 0.0 | 0.0 | 0.00 | 0.00 | 0.00 | 44 | 1022.2 | |
| 20260509043643 | 23 | 71 | 0.0 | 12.9 | 0.00 | 0.00 | 0.00 | 45 | 1022.2 |
| 20260509042635 | 23 | 0.0 | 0.0 | 0.00 | 0.00 | 0.00 | 46 | 1022.3 | |
| 20260509041541 | 23 | 99 | 0.0 | 8.0 | 0.00 | 0.00 | 0.00 | 46 | 1022.3 |
| 20260509040635 | 23 | 71 | 8.0 | 20.9 | 0.00 | 0.00 | 0.00 | 45 | 1022.3 |
| 20260509035643 | 25 | 79 | 0.0 | 8.0 | 0.00 | 0.00 | 0.00 | 43 | 1022.3 |
| 20260509034635 | 25 | 0.0 | 0.0 | 0.00 | 0.00 | 0.00 | 43 | 1022.3 | |
| 20260509033643 | 24 | 0.0 | 4.8 | 0.00 | 0.00 | 0.00 | 46 | 1022.3 | |
| 20260509032637 | 24 | 0.0 | 0.0 | 0.00 | 0.00 | 0.00 | 47 | 1022.4 | |
| 20260509031643 | 24 | 83 | 0.0 | 8.0 | 0.00 | 0.00 | 0.00 | 46 | 1022.5 |
| 20260509030635 | 25 | 67 | 1.6 | 12.9 | 0.00 | 0.00 | 0.00 | 45 | 1022.6 |
| 20260509025643 | 23 | 74 | 3.2 | 12.9 | 0.00 | 0.00 | 0.00 | 48 | 1022.7 |
| 20260509024636 | 24 | 74 | 3.2 | 12.9 | 0.00 | 0.00 | 0.00 | 46 | 1022.8 |
| 20260509023643 | 25 | 0.0 | 0.0 | 0.00 | 0.00 | 0.00 | 44 | 1022.9 | |
| 20260509022635 | 23 | 45 | 0.0 | 4.8 | 0.00 | 0.00 | 0.00 | 47 | 1023.1 |
| 20260509021643 | 23 | 62 | 1.6 | 12.9 | 0.00 | 0.00 | 0.00 | 48 | 1023.3 |
| 20260509020541 | 23 | 0.0 | 0.0 | 0.00 | 0.00 | 0.00 | 47 | 1023.4 | |
| 20260509015540 | 23 | 179 | 0.0 | 4.8 | 0.00 | 0.00 | 0.00 | 45 | 1023.6 |
| 20260509014543 | 23 | 78 | 0.0 | 4.8 | 0.00 | 0.00 | 0.00 | 46 | 1023.8 |
| 20260509013539 | 22 | 0.0 | 0.0 | 0.00 | 0.00 | 0.00 | 48 | 1023.9 | |
| 20260509012623 | 22 | 200 | 0.0 | 8.0 | 0.00 | 0.00 | 0.00 | 47 | 1024.0 |
| 20260509011539 | 21 | 0.0 | 0.0 | 0.00 | 0.00 | 0.00 | 49 | 1024.1 | |
| 20260509010636 | 20 | 0.0 | 0.0 | 0.00 | 0.00 | 0.00 | 50 | 1024.1 | |
| 20260509005643 | 20 | 0.0 | 0.0 | 0.00 | 0.00 | 0.00 | 50 | 1024.2 | |
| 20260509004635 | 20 | 0.0 | 0.0 | 0.00 | 0.00 | 0.00 | 51 | 1024.2 | |
| 20260509003645 | 20 | 0.0 | 0.0 | 0.00 | 0.00 | 0.00 | 50 | 1024.3 | |
| 20260509002717 | 20 | 0.0 | 0.0 | 0.00 | 0.00 | 0.00 | 50 | 1024.4 | |
| 20260509001643 | 19 | 0.0 | 0.0 | 0.00 | 0.00 | 0.00 | 51 | 1024.5 | |
| 20260509000635 | 19 | 220 | 0.0 | 4.8 | 0.00 | 0.00 | 0.00 | 50 | 1024.4 |